• In Belarus
  • List of Countries
  • For 7 days
  • Water Temperature
  • Satellite Maps
  • Weather Map
  • Weather Widgets
  • user-avatar
    Login

    Hourly Weather Wien

    Today, 22 April, Monday

    Time Temperature Precipitation Wind Pressure Humidity
    00:00 +11°C° 0 mm 0 mps 744 mmHg 57%
    01:00 +10°C° 0 mm 0 mps 744 mmHg 59%
    02:00 +10°C° 0 mm 0 mps 743 mmHg 61%
    03:00 +9°C° 0 mm 0 mps 743 mmHg 63%
    04:00 +10°C° 0 mm 1 mps 742 mmHg 64%
    05:00 +11°C° 0 mm 1 mps 742 mmHg 63%
    06:00 +12°C° 0 mm 1 mps 742 mmHg 62%
    07:00 +12°C° 0 mm 1 mps 741 mmHg 60%
    08:00 +14°C° 0 mm 1 mps 741 mmHg 57%
    09:00 +16°C° 0 mm 2 mps 741 mmHg 53%
    10:00 +17°C° 0 mm 2 mps 740 mmHg 50%
    11:00 +18°C° 0 mm 2 mps 740 mmHg 48%
    12:00 +19°C° 0 mm 3 mps 740 mmHg 46%
    13:00 +20°C° 0 mm 3 mps 739 mmHg 45%
    14:00 +20°C° 0 mm 3 mps 739 mmHg 45%
    15:00 +21°C° 0 mm 3 mps 739 mmHg 45%
    16:00 +21°C° 0 mm 4 mps 739 mmHg 46%
    17:00 +19°C° 0 mm 4 mps 739 mmHg 50%
    18:00 +17°C° 0 mm 5 mps 739 mmHg 55%
    19:00 +16°C° 0 mm 5 mps 738 mmHg 60%
    20:00 +15°C° 0 mm 6 mps 739 mmHg 64%
    21:00 +14°C° 0 mm 6 mps 739 mmHg 69%
    22:00 +12°C° 0 mm 7 mps 739 mmHg 74%
    23:00 +11°C° 0 mm 7 mps 739 mmHg 76%

    Tomorrow, 23 April, Tuesday

    Time Temperature Precipitation Wind Pressure Humidity
    00:00 +11°C° 0 mm 7 mps 739 mmHg 78%
    01:00 +10°C° 0 mm 7 mps 739 mmHg 80%
    02:00 +10°C° 0 mm 7 mps 739 mmHg 79%
    03:00 +10°C° 0 mm 7 mps 738 mmHg 79%
    04:00 +10°C° 0 mm 7 mps 738 mmHg 79%
    05:00 +10°C° 0 mm 7 mps 738 mmHg 78%
    06:00 +10°C° 0 mm 8 mps 738 mmHg 77%
    07:00 +9°C° 0 mm 8 mps 738 mmHg 76%
    08:00 +9°C° 0.4 mm 8 mps 738 mmHg 80%
    09:00 +9°C° 0.4 mm 8 mps 738 mmHg 83%
    10:00 +9°C° 0.4 mm 8 mps 738 mmHg 86%
    11:00 +9°C° 0.9 mm 8 mps 738 mmHg 87%
    12:00 +9°C° 0.9 mm 8 mps 738 mmHg 87%
    13:00 +9°C° 0.9 mm 8 mps 738 mmHg 88%
    14:00 +9°C° 0.2 mm 8 mps 738 mmHg 87%
    15:00 +7°C° 0.2 mm 8 mps 738 mmHg 87%
    16:00 +7°C° 0.2 mm 8 mps 738 mmHg 87%
    17:00 +9°C° 0.1 mm 8 mps 738 mmHg 87%
    18:00 +9°C° 0.1 mm 8 mps 738 mmHg 87%
    19:00 +10°C° 0.1 mm 7 mps 737 mmHg 87%
    20:00 +10°C° 0.2 mm 8 mps 738 mmHg 87%
    21:00 +10°C° 0.2 mm 8 mps 738 mmHg 87%
    22:00 +10°C° 0.2 mm 8 mps 738 mmHg 87%
    23:00 +10°C° 0.1 mm 8 mps 738 mmHg 87%

    Day after tomorrow, 24 April, Wednesday

    Time Temperature Precipitation Wind Pressure Humidity
    00:00 +10°C° 0.1 mm 8 mps 738 mmHg 87%
    01:00 +10°C° 0.1 mm 8 mps 738 mmHg 87%
    02:00 +10°C° 0 mm 7 mps 738 mmHg 88%
    03:00 +10°C° 0 mm 7 mps 738 mmHg 89%
    04:00 +10°C° 0 mm 7 mps 738 mmHg 90%
    05:00 +11°C° 0 mm 7 mps 738 mmHg 89%
    06:00 +11°C° 0 mm 7 mps 738 mmHg 88%
    07:00 +13°C° 0 mm 6 mps 739 mmHg 87%
    08:00 +15°C° 0 mm 6 mps 739 mmHg 79%
    09:00 +16°C° 0 mm 6 mps 739 mmHg 72%
    10:00 +19°C° 0 mm 6 mps 740 mmHg 64%
    11:00 +21°C° 0 mm 7 mps 740 mmHg 59%
    12:00 +22°C° 0 mm 7 mps 740 mmHg 54%
    13:00 +23°C° 0 mm 7 mps 740 mmHg 49%
    14:00 +23°C° 0 mm 7 mps 739 mmHg 48%
    15:00 +24°C° 0 mm 7 mps 739 mmHg 48%
    16:00 +24°C° 0 mm 7 mps 739 mmHg 47%
    17:00 +22°C° 0 mm 7 mps 739 mmHg 51%
    18:00 +21°C° 0 mm 6 mps 739 mmHg 56%
    19:00 +19°C° 0 mm 6 mps 740 mmHg 60%
    20:00 +17°C° 0 mm 6 mps 740 mmHg 62%
    21:00 +16°C° 0 mm 5 mps 740 mmHg 65%
    22:00 +15°C° 0 mm 5 mps 740 mmHg 67%
    23:00 +15°C° 0 mm 4 mps 740 mmHg 69%

    25 April, Thursday

    Time Temperature Precipitation Wind Pressure Humidity
    00:00 +14°C° 0 mm 3 mps 740 mmHg 72%
    01:00 +14°C° 0 mm 2 mps 740 mmHg 74%
    02:00 +14°C° 0 mm 2 mps 741 mmHg 75%
    03:00 +13°C° 0 mm 2 mps 741 mmHg 76%
    04:00 +13°C° 0 mm 2 mps 742 mmHg 77%
    05:00 +14°C° 0 mm 2 mps 742 mmHg 74%
    06:00 +15°C° 0 mm 2 mps 742 mmHg 71%
    07:00 +15°C° 0 mm 2 mps 743 mmHg 68%
    08:00 +17°C° 0 mm 2 mps 743 mmHg 65%
    09:00 +19°C° 0 mm 3 mps 743 mmHg 61%
    10:00 +20°C° 0 mm 4 mps 743 mmHg 57%
    11:00 +22°C° 0 mm 4 mps 743 mmHg 53%
    12:00 +23°C° 0 mm 5 mps 742 mmHg 49%
    13:00 +26°C° 0 mm 5 mps 742 mmHg 44%
    14:00 +26°C° 0 mm 6 mps 742 mmHg 43%
    15:00 +27°C° 0 mm 6 mps 741 mmHg 43%
    16:00 +27°C° 0 mm 6 mps 741 mmHg 42%
    17:00 +24°C° 0 mm 6 mps 741 mmHg 45%
    18:00 +23°C° 0 mm 6 mps 741 mmHg 49%
    19:00 +22°C° 0 mm 6 mps 741 mmHg 53%
    20:00 +21°C° 0 mm 5 mps 741 mmHg 54%
    21:00 +20°C° 0 mm 4 mps 741 mmHg 55%
    22:00 +19°C° 0 mm 4 mps 741 mmHg 57%
    23:00 +18°C° 0 mm 3 mps 741 mmHg 59%

    26 April, Friday

    Time Temperature Precipitation Wind Pressure Humidity
    00:00 +17°C° 0 mm 3 mps 741 mmHg 61%
    01:00 +16°C° 0 mm 2 mps 741 mmHg 63%
    02:00 +16°C° 0 mm 2 mps 740 mmHg 64%
    03:00 +15°C° 0 mm 2 mps 740 mmHg 65%
    04:00 +15°C° 0 mm 2 mps 740 mmHg 66%
    05:00 +16°C° 0 mm 2 mps 740 mmHg 64%
    06:00 +17°C° 0 mm 3 mps 740 mmHg 63%
    07:00 +18°C° 0 mm 3 mps 740 mmHg 61%
    08:00 +19°C° 0 mm 4 mps 740 mmHg 57%
    09:00 +21°C° 0 mm 5 mps 740 mmHg 52%
    10:00 +23°C° 0 mm 6 mps 740 mmHg 47%
    11:00 +24°C° 0 mm 6 mps 740 mmHg 44%
    12:00 +26°C° 0 mm 6 mps 739 mmHg 41%
    13:00 +27°C° 0 mm 6 mps 739 mmHg 38%
    14:00 +24°C° 0.5 mm 7 mps 739 mmHg 47%
    15:00 +22°C° 0.5 mm 8 mps 740 mmHg 55%
    16:00 +18°C° 0.5 mm 9 mps 740 mmHg 64%
    17:00 +16°C° 0.8 mm 9 mps 741 mmHg 66%
    18:00 +12°C° 0.8 mm 9 mps 742 mmHg 69%
    19:00 +10°C° 0.8 mm 9 mps 743 mmHg 71%
    20:00 +10°C° 0 mm 9 mps 743 mmHg 70%
    21:00 +10°C° 0 mm 9 mps 744 mmHg 68%
    22:00 +10°C° 0 mm 9 mps 745 mmHg 67%
    23:00 +10°C° 0 mm 8 mps 745 mmHg 66%

    27 April, Saturday

    Time Temperature Precipitation Wind Pressure Humidity
    00:00 +10°C° 0 mm 8 mps 746 mmHg 65%
    01:00 +10°C° 0 mm 7 mps 746 mmHg 65%
    02:00 +10°C° 0 mm 7 mps 746 mmHg 66%
    03:00 +10°C° 0 mm 7 mps 746 mmHg 68%
    04:00 +10°C° 0 mm 7 mps 747 mmHg 69%
    05:00 +10°C° 0 mm 7 mps 747 mmHg 69%
    06:00 +10°C° 0 mm 7 mps 747 mmHg 69%
    07:00 +10°C° 0 mm 8 mps 747 mmHg 69%
    08:00 +12°C° 0 mm 7 mps 747 mmHg 65%
    09:00 +14°C° 0 mm 7 mps 747 mmHg 61%
    10:00 +15°C° 0 mm 7 mps 747 mmHg 57%
    11:00 +16°C° 0.1 mm 7 mps 747 mmHg 53%
    12:00 +16°C° 0.1 mm 7 mps 747 mmHg 50%
    13:00 +17°C° 0.1 mm 6 mps 747 mmHg 47%
    14:00 +17°C° 0 mm 6 mps 747 mmHg 46%
    15:00 +19°C° 0 mm 6 mps 746 mmHg 45%
    16:00 +19°C° 0 mm 5 mps 746 mmHg 44%
    17:00 +17°C° 0 mm 5 mps 747 mmHg 47%
    18:00 +15°C° 0 mm 4 mps 747 mmHg 51%
    19:00 +14°C° 0 mm 3 mps 747 mmHg 55%
    20:00 +13°C° 0 mm 3 mps 748 mmHg 57%
    21:00 +13°C° 0 mm 3 mps 748 mmHg 59%
    22:00 +12°C° 0 mm 3 mps 748 mmHg 61%
    23:00 +12°C° 0 mm 3 mps 748 mmHg 64%
    Show more